Terug naar catalogus

NOAA 17

ActiefWeerSSO
NORAD 27453·PAYLOAD·🇺🇸 United States

Gelanceerd Jun 24, 2002 vanaf Vandenberg Space Force Base

Loading…

Volgende Passages (komende 24 uur)

TLE

VersSource: Space-Track

Epoch: Sep 14, 2026, 14:26 UTC

1 27453U 02032A   26257.60155203  .00000076  00000-0  50634-4 0  9997
2 27453  98.8766 224.5099 0012701  92.1157 268.1477 14.26266109259732

Volg NOAA 17 in realtime met AllMySat

Download on the App Store